Location: *
(50.2903°S, 172.5375°W)
Time: 13:03:24
(UTC+00:00)

STARLINK 1045 - Pass Details

Date: 17 November 2019
Orbit: 430 x 432 km, 53.0° (Epoch: 07 December)

Event Time Altitude Azimuth Distance (km) Brightness Sun altitude
Rises 13:38:35 0° 249° (WSW) 2,438 6.8 -13.8°
Reaches altitude 10° 13:40:48 10° 257° (WSW) 1,564 5.7 -13.6°
Maximum altitude 13:44:06 39° 327° (NNW) 680 3.6 -13.3°
Drops below altitude 10° 13:47:22 10° 36° (NE) 1,550 5.7 -13.0°
Sets 13:49:33 0° 44° (NE) 2,412 6.8 -12.8°
